FW6474 Weather Reports


time (UTC)temp
F
wind
direction
speed
knots
gust
knots
rain 1hr
in
rain 24hr
in
rain mn
in
humidity
%
barometer
mb
20260504150807 65 247 4.3 12.2 0.00 0.00 0.00 57 1005.6
20260504150538 65 219 5.2 12.2 0.00 0.00 0.00 58 1005.6
20260504140702 61 293 4.3 13.0 0.00 0.00 0.00 63 1005.9
20260504140428 61 243 4.3 10.4 0.00 0.00 0.00 62 1005.9
20260504130550 58 245 3.5 7.8 0.00 0.00 0.00 67 1006.4
20260504110326 51 219 1.7 5.2 0.00 0.00 0.00 72 1006.7
20260504110321 51 222 1.7 7.8 0.00 0.00 0.00 72 1006.8
20260504100213 50 227 0.9 4.3 0.00 0.00 0.00 71 1006.5
20260504081556 50 200 0.9 3.5 0.00 0.00 0.00 69 1007.1
20260504081057 50 231 0.9 2.6 0.00 0.00 0.00 69 1007.1
20260504080828 50 237 0.9 2.6 0.00 0.00 0.00 69 1007.1
20260504050536 54 210 3.5 9.6 0.00 0.00 0.00 63 1009.3
20260504045537 54 242 2.6 11.3 0.00 0.00 0.00 63 1009.4
20260504045037 54 191 1.7 6.1 0.00 0.00 0.00 63 1009.4
20260504044538 54 231 2.6 6.1 0.00 0.00 0.00 63 1009.5
20260504044038 54 248 2.6 6.1 0.00 0.00 0.00 63 1009.6
20260504044032 54 196 2.6 6.1 0.00 0.00 0.00 63 1009.5
20260504043033 53 231 2.6 6.1 0.00 0.00 0.00 63 1009.6
20260504042532 53 254 2.6 7.0 0.00 0.00 0.00 63 1009.7
20260504042033 53 229 2.6 10.4 0.00 0.00 0.00 63 1009.6
20260504041803 54 207 2.6 10.4 0.00 0.00 0.00 63 1009.7
20260504041654 53 220 3.5 7.8 0.00 0.00 0.00 63 1009.8
20260504040532 53 248 3.5 7.8 0.00 0.00 0.00 63 1009.8
20260504040034 54 218 3.5 9.6 0.00 0.00 0.00 63 1009.9
20260504035526 54 224 3.5 9.6 0.00 0.00 0.00 63 1010.0
20260504035021 54 157 4.3 9.6 0.00 0.00 0.00 62 1010.0
20260504034515 54 232 4.3 9.6 0.00 0.00 0.00 62 1010.0
20260504034008 54 208 3.5 10.4 0.00 0.00 0.00 61 1010.0
20260504033503 54 220 3.5 10.4 0.00 0.00 0.00 62 1010.1
20260504032956 54 226 2.6 8.7 0.00 0.00 0.00 62 1010.1
20260504032451 54 233 2.6 7.8 0.00 0.00 0.00 62 1010.2
20260504031945 54 231 3.5 13.9 0.00 0.00 0.00 62 1010.4
20260504031439 54 211 3.5 13.9 0.00 0.00 0.00 62 1010.4
20260504030933 54 205 2.6 8.7 0.00 0.00 0.00 62 1010.5
20260504030433 54 225 1.7 7.0 0.00 0.00 0.00 62 1010.5
20260504025933 54 201 2.6 7.8 0.00 0.00 0.00 62 1010.6
20260504025433 54 200 3.5 9.6 0.00 0.00 0.00 62 1010.5
20260504024930 54 221 2.6 9.6 0.00 0.00 0.00 62 1010.6
20260504024430 55 214 1.7 6.1 0.00 0.00 0.00 62 1010.7
20260504023930 55 232 2.6 7.8 0.00 0.00 0.00 62 1010.7
20260504023429 55 239 2.6 7.8 0.00 0.00 0.00 62 1010.7
20260504022928 55 228 2.6 7.0 0.00 0.00 0.00 62 1010.7
20260504022700 55 273 2.6 7.8 0.00 0.00 0.00 63 1010.8
20260504021926 55 222 2.6 7.8 0.00 0.00 0.00 62 1010.7
20260504021427 55 240 1.7 6.1 0.00 0.00 0.00 62 1010.7
20260504020925 55 188 1.7 8.7 0.00 0.00 0.00 62 1010.8
20260504020424 55 214 2.6 8.7 0.00 0.00 0.00 61 1010.7
20260504020156 55 238 2.6 7.0 0.00 0.00 0.00 61 1010.9
20260504015656 55 231 3.5 13.0 0.00 0.00 0.00 61 1010.8
20260504014923 55 191 2.6 13.0 0.00 0.00 0.00 60 1010.7
20260504014654 56 196 2.6 10.4 0.00 0.00 0.00 60 1010.7
20260504013927 56 252 3.5 12.2 0.00 0.00 0.00 60 1010.7
20260504013421 56 229 3.5 12.2 0.00 0.00 0.00 60 1010.7
20260504012916 56 243 3.5 12.2 0.00 0.00 0.00 59 1010.7
20260504012409 56 239 3.5 12.2 0.00 0.00 0.00 59 1010.7
20260504011903 56 271 4.3 13.0 0.00 0.00 0.00 58 1010.7
20260504011357 57 287 5.2 14.8 0.00 0.00 0.00 58 1010.7
20260504011122 57 205 4.3 14.8 0.00 0.00 0.00 57 1010.7
20260504010345 57 224 4.3 11.3 0.00 0.00 0.00 56 1010.7
20260504005839 57 228 5.2 18.2 0.00 0.00 0.00 56 1010.7
20260504005333 58 178 6.1 18.2 0.00 0.00 0.00 55 1010.6
20260504004828 58 243 5.2 13.9 0.00 0.00 0.00 56 1010.6
20260504004321 58 243 6.1 15.6 0.00 0.00 0.00 56 1010.4
20260504003815 59 244 7.0 15.6 0.00 0.00 0.00 55 1010.5
20260504003309 59 236 7.0 13.9 0.00 0.00 0.00 54 1010.4
20260504002803 60 240 6.1 16.5 0.00 0.00 0.00 53 1010.2
20260504002257 60 271 5.2 13.9 0.00 0.00 0.00 52 1010.1
20260504001755 60 210 6.1 13.9 0.00 0.00 0.00 51 1010.0
20260504001255 60 223 6.1 14.8 0.00 0.00 0.00 50 1009.9
20260504000755 61 286 5.2 14.8 0.00 0.00 0.00 48 1009.9
20260504000255 61 242 5.2 14.8 0.00 0.00 0.00 48 1009.8
20260503235753 61 304 7.0 16.5 0.00 0.00 0.00 48 1009.9
20260503235255 61 236 7.0 16.5 0.00 0.00 0.00 47 1009.9
20260503234754 61 283 6.1 13.0 0.00 0.00 0.00 47 1009.8
20260503234255 61 231 6.1 13.0 0.00 0.00 0.00 47 1009.8
20260503233755 61 184 6.1 13.0 0.00 0.00 0.00 47 1009.9
20260503233257 61 255 6.1 13.0 0.00 0.00 0.00 46 1009.9
20260503233026 61 208 6.1 13.9 0.00 0.00 0.00 46 1009.9
20260503232254 62 260 6.1 13.9 0.00 0.00 0.00 45 1010.0
20260503231753 62 236 4.3 11.3 0.00 0.00 0.00 46 1010.0
20260503231254 62 236 6.1 15.6 0.00 0.00 0.00 46 1010.1
20260503230753 62 233 7.0 15.6 0.00 0.00 0.00 45 1010.0
20260503230254 63 256 5.2 14.8 0.00 0.00 0.00 43 1009.9
20260503225748 64 245 4.3 13.9 0.00 0.00 0.00 44 1009.9
20260503225243 64 236 6.1 13.9 0.00 0.00 0.00 43 1009.9
20260503224736 63 206 7.8 19.1 0.00 0.00 0.00 43 1010.1
20260503224231 63 255 7.0 19.1 0.00 0.00 0.00 42 1010.2
20260503223728 64 247 6.1 16.5 0.00 0.00 0.00 42 1010.4
20260503223227 64 246 8.7 18.2 0.00 0.00 0.00 42 1010.5
20260503222958 64 236 8.7 18.2 0.00 0.00 0.00 41 1010.4
20260503222228 65 262 7.0 16.5 0.00 0.00 0.00 41 1010.4
20260503221727 65 241 5.2 13.9 0.00 0.00 0.00 42 1010.4
20260503221228 65 246 5.2 15.6 0.00 0.00 0.00 43 1010.4
20260503220729 64 246 6.1 15.6 0.00 0.00 0.00 43 1010.4
20260503220227 64 255 7.0 16.5 0.00 0.00 0.00 43 1010.2
20260503215729 63 193 6.1 16.5 0.00 0.00 0.00 43 1010.4
20260503215228 63 254 5.2 13.9 0.00 0.00 0.00 43 1010.4
20260503214729 63 252 5.2 13.9 0.00 0.00 0.00 44 1010.4
20260503214228 63 224 6.1 14.8 0.00 0.00 0.00 43 1010.2
20260503213728 63 209 6.1 14.8 0.00 0.00 0.00 43 1010.4
20260503213228 63 257 7.0 16.5 0.00 0.00 0.00 44 1010.2
20260503212727 63 267 7.0 16.5 0.00 0.00 0.00 43 1010.5
20260503212226 64 245 6.1 20.0 0.00 0.00 0.00 42 1010.5
20260503211726 64 213 6.1 20.0 0.00 0.00 0.00 43 1010.5
20260503211226 64 275 7.0 15.6 0.00 0.00 0.00 41 1010.2
20260503210725 64 225 7.8 17.4 0.00 0.00 0.00 41 1010.4
20260503210225 64 172 7.8 21.7 0.00 0.00 0.00 42 1010.4
20260503205725 63 248 7.8 23.5 0.00 0.00 0.00 41 1010.4
20260503205227 63 215 7.8 23.5 0.00 0.00 0.00 41 1010.4
20260503204725 63 226 6.1 18.2 0.00 0.00 0.00 41 1010.5
20260503204226 63 241 7.0 15.6 0.00 0.00 0.00 42 1010.5
20260503203724 63 210 7.0 15.6 0.00 0.00 0.00 41 1010.6
20260503203223 64 232 7.0 16.5 0.00 0.00 0.00 41 1010.6
20260503202724 64 207 7.0 19.1 0.00 0.00 0.00 40 1010.5
20260503202225 64 238 7.0 19.1 0.00 0.00 0.00 40 1010.5
20260503201954 64 238 6.1 16.5 0.00 0.00 0.00 41 1010.6
20260503201224 63 167 7.0 16.5 0.00 0.00 0.00 41 1010.6
20260503200723 63 269 6.1 16.5 0.00 0.00 0.00 40 1010.7
20260503200229 63 239 7.0 19.1 0.00 0.00 0.00 38 1010.8
20260503200223 63 263 6.1 16.5 0.00 0.00 0.00 40 1010.8
20260503195828 63 214 7.0 19.1 0.00 0.00 0.00 39 1010.8
20260503194720 64 267 6.1 17.4 0.00 0.00 0.00 39 1010.9
20260503194221 64 258 5.2 14.8 0.00 0.00 0.00 39 1011.0
20260503193720 64 283 5.2 15.6 0.00 0.00 0.00 39 1011.1
20260503193220 63 261 7.0 16.5 0.00 0.00 0.00 39 1011.1
20260503192719 63 214 8.7 20.9 0.00 0.00 0.00 39 1011.3
20260503192220 63 240 8.7 20.9 0.00 0.00 0.00 38 1011.3
20260503191720 64 298 7.0 20.0 0.00 0.00 0.00 39 1011.2
20260503191452 64 209 7.0 19.1 0.00 0.00 0.00 38 1011.4
20260503190716 64 220 7.0 19.1 0.00 0.00 0.00 39 1011.4
20260503190215 65 236 7.0 20.9 0.00 0.00 0.00 38 1011.5
20260503185716 65 115 6.1 20.9 0.00 0.00 0.00 39 1011.6
20260503185215 65 220 5.2 13.9 0.00 0.00 0.00 40 1011.6
20260503184716 64 265 6.1 15.6 0.00 0.00 0.00 39 1011.7
20260503184215 64 228 6.1 15.6 0.00 0.00 0.00 41 1011.8
20260503183716 62 245 7.0 15.6 0.00 0.00 0.00 40 1011.8
20260503183449 62 318 7.0 18.2 0.00 0.00 0.00 40 1012.0
20260503182716 62 224 7.0 18.2 0.00 0.00 0.00 39 1012.1
20260503182213 62 166 7.0 16.5 0.00 0.00 0.00 40 1012.1
20260503181713 62 248 7.0 17.4 0.00 0.00 0.00 41 1012.2
20260503181214 63 240 6.1 17.4 0.00 0.00 0.00 39 1012.2
20260503180715 63 247 7.0 17.4 0.00 0.00 0.00 39 1012.3
20260503180444 62 267 7.8 20.9 0.00 0.00 0.00 40 1012.4
20260503175713 62 210 7.8 20.9 0.00 0.00 0.00 39 1012.4
20260503175213 62 269 7.8 17.4 0.00 0.00 0.00 41 1012.4
20260503174715 61 261 7.8 19.1 0.00 0.00 0.00 40 1012.6
20260503174213 62 240 7.8 19.1 0.00 0.00 0.00 40 1012.6
20260503173713 62 293 6.1 16.5 0.00 0.00 0.00 40 1012.6
20260503173213 62 249 5.2 13.9 0.00 0.00 0.00 41 1012.6
20260503172946 61 300 6.1 14.8 0.00 0.00 0.00 41 1012.7
20260503172216 61 198 8.7 15.6 0.00 0.00 0.00 41 1012.9
20260503171711 60 253 9.6 23.5 0.00 0.00 0.00 40 1013.0
20260503171435 61 255 7.8 23.5 0.00 0.00 0.00 40 1013.0
20260503170658 61 217 6.1 13.9 0.00 0.00 0.00 40 1013.1
20260503170423 60 287 7.8 14.8 0.00 0.00 0.00 41 1013.2